map of LRM home
Great Circle Mapper logo
LRM - Airport
Location
City:  La Romana, La Romana, Dominican Republic
Name:Casa de Campo International Airport
ICAO:MDLR
IATA:LRM

Details
Type:Airport (Aerodrome, Airfield)
Use:Public/Civil, International (customs port of entry)
Latitude:1827'03"N (18.450711)
Longitude:6854'43"W (-68.911832)
Datum:WGS 1984
Elevation:240 ft (73 m)
Variation:11.81W (WMM2015 magnetic declination)
-0.07 annual change
Runways:1
Longest:9676 × 148 ft (2949 × 45 m), paved

Time
Time Zone:UTC-4
Local Time:

Weather
METAR:MDLR 300300Z 00000KT 9999 FEW016CBN FEW018 SCT300 24/24 Q1016 CB/NW
TAF:MDLR 291000Z 2912/3012 13010KT 9999 SCT018 PROB40 2916/2922 7000 -TSRA FEW014CB SCT016 BKN070
BECMG 3003/3005 00000KT

Related Locations
Nearby:
Farthest:EXM: 12121 mi / 19507 km
Exmouth Gulf, WA, AU

Find:

   beyond  
but within

Other Information
Maps:
NOTAMs:
Links:
Sources:

  
flag of Dominican Republic   

Sectional Chart

Flight Planning
at skyvector.com

Satellite Image

Google Maps Satellite view

 

Copyright © 2004-2016 Karl L. Swartz. All rights reserved.
The Great Circle Mapper name and logo are trademarks of the Great Circle Mapper.
All other trademarks mentioned herein belong to their respective owners.
Please see credits for attibutions and further copyright information.

  Follow gcmap on Facebook Follow gcmap on Twitter Follow gcmap on Google+ GCmap on LinkedIn

hCard Microformat

Geo Microformat